sat.trackr.live / text

‹ back to catalog

STARLINK-5680

NORAD 55455 · 2023-015G

PAYLOAD ACTIVE UNKNOWN

§ Identity

Operator
Country
US
Launch date
2023-02-02
Launch site
AFETR
Launch vehicle
Mass (kg)
RCS (m²)

Purposes: comms

External: N2YO · Heavens-Above · Gunter

§ Orbital elements

Epoch: 2026-09-20T13:59:35.894976Z

Period
94.27 min
Inclination
43.0047°
Eccentricity
0.0001647
Mean motion
15.27576536 rev/d
Perigee alt
481.9 km
Apogee alt
484.2 km
Semi-major
6,861.2 km
B*
3.4420e-6
RAAN
308.4819°
Arg perigee
298.3789°
Mean anomaly
61.6897°
Rev number
20,052

§ Raw data

STARLINK-56801 55455U 23015G   26263.58305434 -.00000168  00000+0  34420-5 0  99992 55455  43.0047 308.4819 0001647 298.3789  61.6897 15.27576536200524

JSON: /api/v1/satellites/55455 · /tle

For live sub-satellite position, see the globe view (requires WebGL).

§ Visibility from observer

Set your observer location to see the next 7 days of passes ≥ 10°. The values pass through the URL so the page stays shareable.

No JS? Fill the form by hand. The geolocation button needs JavaScript.